STARLINK-1680

Last updated on Fri Nov 06 2020 00:02:03 GMT+0000 (Coordinated Universal Time)

1 46558U 20070AC 20310.83334491 -.00053410 00000-0 -57989-3 0 9994 2 46558 53.0030 292.9599 0001039 76.3101 9.6311 15.62814663 5587

Satellite not in orbit